Time,TemperatureF,DewpointF,PressureIn,WindDirection,WindDirectionDegrees,WindSpeedMPH,WindSpeedGustMPH,Humidity,HourlyPrecipIn,Conditions,Clouds,dailyrainin,SolarRadiationWatts/m^2,SoftwareType,DateUTC
2013-09-05 00:01:00,61.8,58.8,30.16,ENE,72,1.0,1.0,90,0.00,,,0.00,0,Wunderground v.1.15,2013-09-05 04:01:00,
2013-09-05 00:02:00,61.8,58.8,30.16,ENE,74,1.0,1.0,90,0.00,,,0.00,0,Wunderground v.1.15,2013-09-05 04:02:00,
2013-09-05 00:03:00,61.8,58.8,30.15,ENE,74,1.0,1.0,90,0.00,,,0.00,0,Wunderground v.1.15,2013-09-05 04:03:00,
2013-09-05 00:04:00,61.8,58.8,30.15,ENE,71,1.0,1.0,90,0.00,,,0.00,0,Wunderground v.1.15,2013-09-05 04:04:00,
2013-09-05 00:07:00,61.7,58.7,30.15,ENE,74,0.0,1.0,90,0.00,,,0.00,0,Wunderground v.1.15,2013-09-05 04:07:00,
2013-09-05 00:13:00,61.6,58.6,30.15,North,5,1.0,3.0,90,0.00,,,0.00,0,Wunderground v.1.15,2013-09-05 04:13:00,
2013-09-05 00:14:00,61.6,58.6,30.15,North,5,2.0,3.0,90,0.00,,,0.00,0,Wunderground v.1.15,2013-09-05 04:14:00,
2013-09-05 00:19:00,61.5,58.8,30.15,North,360,1.0,3.0,91,0.00,,,0.00,0,Wunderground v.1.15,2013-09-05 04:19:00,
2013-09-05 00:25:00,61.2,58.6,30.15,ENE,63,0.0,1.0,91,0.00,,,0.00,0,Wunderground v.1.15,2013-09-05 04:25:00,
2013-09-05 00:30:00,61.0,58.4,30.15,ENE,61,0.0,0.0,91,0.00,,,0.00,0,Wunderground v.1.15,2013-09-05 04:30:00,
2013-09-05 00:35:00,60.9,58.6,30.15,ENE,60,0.0,0.0,92,0.00,,,0.00,0,Wunderground v.1.15,2013-09-05 04:35:00,
2013-09-05 00:41:00,60.7,58.4,30.15,ENE,62,0.0,1.0,92,0.00,,,0.00,0,Wunderground v.1.15,2013-09-05 04:41:00,
2013-09-05 00:46:00,60.6,58.3,30.15,ENE,62,1.0,3.0,92,0.00,,,0.00,0,Wunderground v.1.15,2013-09-05 04:46:00,
2013-09-05 00:51:00,60.4,58.1,30.15,ENE,59,0.0,0.0,92,0.00,,,0.00,0,Wunderground v.1.15,2013-09-05 04:51:00,
2013-09-05 00:57:00,60.2,58.2,30.15,ENE,61,0.0,2.0,93,0.00,,,0.00,0,Wunderground v.1.15,2013-09-05 04:57:00,
2013-09-05 01:03:00,60.1,58.1,30.15,NW,309,1.0,2.0,93,0.00,,,0.00,0,Wunderground v.1.15,2013-09-05 05:03:00,
2013-09-05 01:08:00,60.0,58.0,30.15,NW,308,2.0,3.0,93,0.00,,,0.00,0,Wunderground v.1.15,2013-09-05 05:08:00,
2013-09-05 01:14:00,59.9,57.9,30.15,ENE,67,1.0,2.0,93,0.00,,,0.00,0,Wunderground v.1.15,2013-09-05 05:14:00,
2013-09-05 01:19:00,59.7,57.7,30.15,East,95,1.0,2.0,93,0.00,,,0.00,0,Wunderground v.1.15,2013-09-05 05:19:00,
2013-09-05 01:24:00,59.7,58.0,30.15,East,97,1.0,1.0,94,0.00,,,0.00,0,Wunderground v.1.15,2013-09-05 05:24:00,
2013-09-05 01:30:00,59.7,58.0,30.15,East,97,0.0,0.0,94,0.00,,,0.00,0,Wunderground v.1.15,2013-09-05 05:30:00,
2013-09-05 01:35:00,59.7,58.0,30.15,NW,308,0.0,4.0,94,0.00,,,0.00,0,Wunderground v.1.15,2013-09-05 05:35:00,
2013-09-05 01:41:00,59.7,58.0,30.15,NW,309,1.0,1.0,94,0.00,,,0.00,0,Wunderground v.1.15,2013-09-05 05:41:00,
2013-09-05 01:46:00,59.6,57.9,30.15,NW,305,1.0,1.0,94,0.00,,,0.00,0,Wunderground v.1.15,2013-09-05 05:46:00,
2013-09-05 01:51:00,59.5,57.8,30.15,NW,309,0.0,0.0,94,0.00,,,0.00,0,Wunderground v.1.15,2013-09-05 05:51:00,
2013-09-05 01:57:00,59.4,57.7,30.15,NW,308,0.0,0.0,94,0.00,,,0.00,0,Wunderground v.1.15,2013-09-05 05:57:00,
2013-09-05 02:03:00,59.4,58.0,30.15,NW,309,0.0,2.0,95,0.00,,,0.00,0,Wunderground v.1.15,2013-09-05 06:03:00,
2013-09-05 02:08:00,59.3,57.6,30.14,NW,311,1.0,3.0,94,0.00,,,0.00,0,Wunderground v.1.15,2013-09-05 06:08:00,
2013-09-05 02:14:00,59.1,57.7,30.14,NNW,328,1.0,2.0,95,0.00,,,0.00,0,Wunderground v.1.15,2013-09-05 06:14:00,
2013-09-05 02:19:00,59.1,57.7,30.14,NNW,328,1.0,2.0,95,0.00,,,0.00,0,Wunderground v.1.15,2013-09-05 06:19:00,
2013-09-05 02:24:00,59.1,58.0,30.14,NW,326,0.0,1.0,96,0.00,,,0.00,0,Wunderground v.1.15,2013-09-05 06:24:00,
2013-09-05 02:30:00,59.0,57.6,30.14,NW,322,0.0,0.0,95,0.00,,,0.00,0,Wunderground v.1.15,2013-09-05 06:30:00,
2013-09-05 02:35:00,58.9,57.8,30.14,NW,322,0.0,0.0,96,0.00,,,0.00,0,Wunderground v.1.15,2013-09-05 06:35:00,
2013-09-05 02:40:00,58.9,57.8,30.14,NW,321,0.0,0.0,96,0.00,,,0.00,0,Wunderground v.1.15,2013-09-05 06:40:00,
2013-09-05 02:46:00,58.8,57.7,30.14,WNW,296,0.0,3.0,96,0.00,,,0.00,0,Wunderground v.1.15,2013-09-05 06:46:00,
2013-09-05 02:51:00,58.8,57.7,30.14,WNW,296,0.0,0.0,96,0.00,,,0.00,0,Wunderground v.1.15,2013-09-05 06:51:00,
2013-09-05 02:57:00,58.7,57.6,30.13,WSW,254,0.0,2.0,96,0.00,,,0.00,0,Wunderground v.1.15,2013-09-05 06:57:00,
2013-09-05 03:03:00,58.7,57.6,30.13,SE,134,0.0,2.0,96,0.00,,,0.00,0,Wunderground v.1.15,2013-09-05 07:03:00,
2013-09-05 03:08:00,58.7,57.6,30.13,SE,136,0.0,2.0,96,0.00,,,0.00,0,Wunderground v.1.15,2013-09-05 07:08:00,
2013-09-05 03:13:00,58.7,57.9,30.14,SSE,167,0.0,1.0,97,0.00,,,0.00,0,Wunderground v.1.15,2013-09-05 07:13:00,
2013-09-05 03:18:00,58.7,57.9,30.13,SSE,165,1.0,2.0,97,0.00,,,0.00,0,Wunderground v.1.15,2013-09-05 07:18:00,
2013-09-05 03:24:00,58.7,57.6,30.13,SSE,167,0.0,2.0,96,0.00,,,0.00,0,Wunderground v.1.15,2013-09-05 07:24:00,
2013-09-05 03:29:00,58.7,57.9,30.14,SSE,165,0.0,2.0,97,0.00,,,0.00,0,Wunderground v.1.15,2013-09-05 07:29:00,
2013-09-05 03:34:00,58.7,57.9,30.14,SSE,167,1.0,2.0,97,0.00,,,0.00,0,Wunderground v.1.15,2013-09-05 07:34:00,
2013-09-05 03:40:00,58.7,57.9,30.14,SSE,165,0.0,1.0,97,0.00,,,0.00,0,Wunderground v.1.15,2013-09-05 07:40:00,
2013-09-05 03:45:00,58.6,57.8,30.14,SSE,161,0.0,2.0,97,0.00,,,0.00,0,Wunderground v.1.15,2013-09-05 07:45:00,
2013-09-05 03:51:00,58.6,57.8,30.14,SE,146,1.0,1.0,97,0.00,,,0.00,0,Wunderground v.1.15,2013-09-05 07:51:00,
2013-09-05 03:56:00,58.6,57.8,30.14,SE,143,1.0,1.0,97,0.00,,,0.00,0,Wunderground v.1.15,2013-09-05 07:56:00,
2013-09-05 04:02:00,58.6,57.8,30.14,SE,146,0.0,0.0,97,0.00,,,0.00,0,Wunderground v.1.15,2013-09-05 08:02:00,
2013-09-05 04:07:00,58.5,57.7,30.15,SSE,147,0.0,0.0,97,0.00,,,0.00,0,Wunderground v.1.15,2013-09-05 08:07:00,
2013-09-05 04:12:00,58.4,57.6,30.14,SSE,151,0.0,1.0,97,0.00,,,0.00,0,Wunderground v.1.15,2013-09-05 08:12:00,
2013-09-05 04:18:00,58.4,57.6,30.14,SSW,192,0.0,3.0,97,0.00,,,0.00,0,Wunderground v.1.15,2013-09-05 08:18:00,
2013-09-05 04:23:00,58.5,57.7,30.14,WSW,257,1.0,3.0,97,0.00,,,0.00,0,Wunderground v.1.15,2013-09-05 08:23:00,
2013-09-05 04:28:00,58.5,57.7,30.14,SW,227,2.0,3.0,97,0.00,,,0.00,0,Wunderground v.1.15,2013-09-05 08:28:00,
2013-09-05 04:34:00,58.6,57.8,30.14,SSE,165,1.0,2.0,97,0.00,,,0.00,0,Wunderground v.1.15,2013-09-05 08:34:00,
2013-09-05 04:39:00,58.7,57.9,30.14,SSE,155,1.0,2.0,97,0.00,,,0.00,0,Wunderground v.1.15,2013-09-05 08:39:00,
2013-09-05 04:44:00,58.7,57.9,30.14,SSE,152,0.0,1.0,97,0.00,,,0.00,0,Wunderground v.1.15,2013-09-05 08:44:00,
2013-09-05 04:49:00,58.7,57.9,30.14,SSW,200,0.0,1.0,97,0.00,,,0.00,0,Wunderground v.1.15,2013-09-05 08:49:00,
2013-09-05 04:55:00,58.7,57.9,30.14,South,189,1.0,1.0,97,0.00,,,0.00,0,Wunderground v.1.15,2013-09-05 08:55:00,
2013-09-05 05:00:00,58.8,58.0,30.14,South,185,1.0,1.0,97,0.00,,,0.00,0,Wunderground v.1.15,2013-09-05 09:00:00,
2013-09-05 05:06:00,58.8,57.7,30.14,WSW,243,0.0,2.0,96,0.00,,,0.00,0,Wunderground v.1.15,2013-09-05 09:06:00,
2013-09-05 05:12:00,58.9,57.8,30.13,SE,146,0.0,3.0,96,0.00,,,0.00,0,Wunderground v.1.15,2013-09-05 09:12:00,
2013-09-05 05:17:00,59.0,57.9,30.13,SSE,165,1.0,4.0,96,0.00,,,0.00,0,Wunderground v.1.15,2013-09-05 09:17:00,
2013-09-05 05:22:00,59.0,57.9,30.13,SE,132,1.0,2.0,96,0.00,,,0.00,0,Wunderground v.1.15,2013-09-05 09:22:00,
2013-09-05 05:27:00,59.2,58.1,30.13,ESE,114,1.0,3.0,96,0.00,,,0.00,0,Wunderground v.1.15,2013-09-05 09:27:00,
2013-09-05 05:33:00,59.6,58.5,30.13,NW,309,2.0,5.0,96,0.00,,,0.00,0,Wunderground v.1.15,2013-09-05 09:33:00,
2013-09-05 05:38:00,61.3,59.6,30.13,North,360,3.0,9.0,94,0.00,,,0.00,0,Wunderground v.1.15,2013-09-05 09:38:00,
2013-09-05 05:43:00,62.3,59.9,30.13,West,273,5.0,9.0,92,0.00,,,0.00,0,Wunderground v.1.15,2013-09-05 09:43:00,
2013-09-05 05:49:00,62.9,59.6,30.13,NNE,33,5.0,9.0,89,0.00,,,0.00,0,Wunderground v.1.15,2013-09-05 09:49:00,
2013-09-05 05:54:00,62.8,59.5,30.13,SW,217,4.0,4.0,89,0.00,,,0.00,0,Wunderground v.1.15,2013-09-05 09:54:00,
2013-09-05 06:00:00,63.4,60.1,30.13,West,272,4.0,4.0,89,0.00,,,0.00,0,Wunderground v.1.15,2013-09-05 10:00:00,
2013-09-05 06:06:00,64.5,60.5,30.13,West,269,6.0,8.0,87,0.00,,,0.00,0,Wunderground v.1.15,2013-09-05 10:06:00,
2013-09-05 06:11:00,65.0,60.4,30.14,SW,235,5.0,6.0,85,0.00,,,0.00,0,Wunderground v.1.15,2013-09-05 10:11:00,
2013-09-05 06:16:00,65.3,60.3,30.14,WNW,284,5.0,10.0,84,0.00,,,0.00,0,Wunderground v.1.15,2013-09-05 10:16:00,
2013-09-05 06:22:00,65.2,60.2,30.13,WNW,289,5.0,5.0,84,0.00,,,0.00,0,Wunderground v.1.15,2013-09-05 10:22:00,
2013-09-05 06:27:00,64.9,60.3,30.13,WNW,295,3.0,5.0,85,0.00,,,0.00,0,Wunderground v.1.15,2013-09-05 10:27:00,
2013-09-05 06:32:00,64.6,60.0,30.14,WSW,253,3.0,7.0,85,0.00,,,0.00,0,Wunderground v.1.15,2013-09-05 10:32:00,
2013-09-05 06:37:00,64.4,60.1,30.14,West,271,3.0,9.0,86,0.00,,,0.00,0,Wunderground v.1.15,2013-09-05 10:37:00,
2013-09-05 06:43:00,64.0,59.7,30.14,WSW,252,3.0,9.0,86,0.00,,,0.00,0,Wunderground v.1.15,2013-09-05 10:43:00,
2013-09-05 06:48:00,63.7,59.8,30.14,SW,225,4.0,9.0,87,0.00,,,0.00,5,Wunderground v.1.15,2013-09-05 10:48:00,
2013-09-05 06:54:00,63.7,60.1,30.14,WSW,237,5.0,7.0,88,0.00,,,0.00,7,Wunderground v.1.15,2013-09-05 10:54:00,
2013-09-05 06:59:00,63.7,59.8,30.15,North,360,5.0,7.0,87,0.00,,,0.00,11,Wunderground v.1.15,2013-09-05 10:59:00,
2013-09-05 07:05:00,63.8,59.9,30.15,WNW,300,4.0,10.0,87,0.00,,,0.00,12,Wunderground v.1.15,2013-09-05 11:05:00,
2013-09-05 07:10:00,64.0,59.7,30.15,SW,219,5.0,5.0,86,0.00,,,0.00,14,Wunderground v.1.15,2013-09-05 11:10:00,
2013-09-05 07:15:00,64.2,59.9,30.15,WSW,257,5.0,10.0,86,0.00,,,0.00,18,Wunderground v.1.15,2013-09-05 11:15:00,
2013-09-05 07:21:00,64.4,60.1,30.15,SW,225,5.0,8.0,86,0.00,,,0.00,19,Wunderground v.1.15,2013-09-05 11:21:00,
2013-09-05 07:26:00,64.5,60.2,30.15,SW,227,6.0,8.0,86,0.00,,,0.00,23,Wunderground v.1.15,2013-09-05 11:26:00,
2013-09-05 07:32:00,64.6,60.3,30.15,WSW,254,6.0,15.0,86,0.00,,,0.00,70,Wunderground v.1.15,2013-09-05 11:32:00,
2013-09-05 07:37:00,64.7,60.4,30.15,WNW,288,5.0,15.0,86,0.00,,,0.00,58,Wunderground v.1.15,2013-09-05 11:37:00,
2013-09-05 07:42:00,65.1,60.5,30.14,SSW,193,6.0,6.0,85,0.00,,,0.00,42,Wunderground v.1.15,2013-09-05 11:42:00,
2013-09-05 07:48:00,65.8,60.8,30.14,WSW,240,6.0,8.0,84,0.00,,,0.00,46,Wunderground v.1.15,2013-09-05 11:48:00,
2013-09-05 07:53:00,66.3,61.0,30.15,WSW,246,7.0,16.0,83,0.00,,,0.00,70,Wunderground v.1.15,2013-09-05 11:53:00,
2013-09-05 07:58:00,66.9,61.2,30.14,North,360,8.0,16.0,82,0.00,,,0.00,114,Wunderground v.1.15,2013-09-05 11:58:00,
2013-09-05 08:04:00,67.4,61.7,30.14,WSW,253,6.0,8.0,82,0.00,,,0.00,200,Wunderground v.1.15,2013-09-05 12:04:00,
2013-09-05 08:10:00,67.7,61.7,30.14,North,360,5.0,5.0,81,0.00,,,0.00,225,Wunderground v.1.15,2013-09-05 12:10:00,
2013-09-05 08:15:00,68.0,61.6,30.14,WSW,244,4.0,5.0,80,0.00,,,0.00,243,Wunderground v.1.15,2013-09-05 12:15:00,
2013-09-05 08:20:00,68.2,61.8,30.14,SSW,213,5.0,9.0,80,0.00,,,0.00,260,Wunderground v.1.15,2013-09-05 12:20:00,
2013-09-05 08:26:00,68.2,61.4,30.14,South,189,6.0,9.0,79,0.00,,,0.00,279,Wunderground v.1.15,2013-09-05 12:26:00,
2013-09-05 08:31:00,68.5,61.7,30.14,South,173,4.0,5.0,79,0.00,,,0.00,290,Wunderground v.1.15,2013-09-05 12:31:00,
2013-09-05 08:36:00,68.9,61.8,30.14,SSW,200,3.0,5.0,78,0.00,,,0.00,306,Wunderground v.1.15,2013-09-05 12:36:00,
2013-09-05 08:42:00,69.4,62.6,30.14,SW,214,2.0,3.0,79,0.00,,,0.00,327,Wunderground v.1.15,2013-09-05 12:42:00,
2013-09-05 08:47:00,70.0,62.1,30.15,SW,228,3.0,5.0,76,0.00,,,0.00,329,Wunderground v.1.15,2013-09-05 12:47:00,
2013-09-05 08:52:00,70.4,62.5,30.14,SSW,200,2.0,2.0,76,0.00,,,0.00,357,Wunderground v.1.15,2013-09-05 12:52:00,
2013-09-05 08:58:00,71.1,62.4,30.14,NNE,20,1.0,4.0,74,0.00,,,0.00,378,Wunderground v.1.15,2013-09-05 12:58:00,
2013-09-05 09:04:00,71.6,64.0,30.15,SSE,150,2.0,7.0,77,0.00,,,0.00,387,Wunderground v.1.15,2013-09-05 13:04:00,
2013-09-05 09:09:00,71.8,62.3,30.15,SSE,160,3.0,7.0,72,0.00,,,0.00,406,Wunderground v.1.15,2013-09-05 13:09:00,
2013-09-05 09:14:00,71.9,62.8,30.14,ESE,104,3.0,5.0,73,0.00,,,0.00,422,Wunderground v.1.15,2013-09-05 13:14:00,
2013-09-05 09:20:00,72.3,64.3,30.15,South,172,3.0,5.0,76,0.00,,,0.00,454,Wunderground v.1.15,2013-09-05 13:20:00,
2013-09-05 09:25:00,72.7,63.5,30.15,ENE,65,2.0,5.0,73,0.00,,,0.00,469,Wunderground v.1.15,2013-09-05 13:25:00,
2013-09-05 09:30:00,72.9,64.1,30.15,South,182,4.0,6.0,74,0.00,,,0.00,524,Wunderground v.1.15,2013-09-05 13:30:00,
2013-09-05 09:36:00,73.1,63.1,30.15,SE,132,4.0,6.0,71,0.00,,,0.00,185,Wunderground v.1.15,2013-09-05 13:36:00,
2013-09-05 09:41:00,72.8,63.6,30.15,SE,132,3.0,7.0,73,0.00,,,0.00,169,Wunderground v.1.15,2013-09-05 13:41:00,
2013-09-05 09:47:00,72.5,63.4,30.16,SSE,155,3.0,7.0,73,0.00,,,0.00,197,Wunderground v.1.15,2013-09-05 13:47:00,
2013-09-05 09:52:00,72.4,64.4,30.16,SSE,152,1.0,3.0,76,0.00,,,0.00,162,Wunderground v.1.15,2013-09-05 13:52:00,
2013-09-05 09:57:00,72.4,64.8,30.16,South,170,1.0,3.0,77,0.00,,,0.00,141,Wunderground v.1.15,2013-09-05 13:57:00,
2013-09-05 10:03:00,72.4,63.6,30.16,SSE,162,1.0,1.0,74,0.00,,,0.00,195,Wunderground v.1.15,2013-09-05 14:03:00,
2013-09-05 10:09:00,72.5,64.1,30.16,East,85,0.0,3.0,75,0.00,,,0.00,167,Wunderground v.1.15,2013-09-05 14:09:00,
2013-09-05 10:14:00,72.5,64.1,30.16,SW,227,1.0,2.0,75,0.00,,,0.00,137,Wunderground v.1.15,2013-09-05 14:14:00,
2013-09-05 10:19:00,72.7,63.9,30.16,NE,42,1.0,2.0,74,0.00,,,0.00,125,Wunderground v.1.15,2013-09-05 14:19:00,
2013-09-05 10:25:00,72.8,64.0,30.16,ENE,69,1.0,1.0,74,0.00,,,0.00,153,Wunderground v.1.15,2013-09-05 14:25:00,
2013-09-05 10:30:00,72.9,64.9,30.16,North,360,2.0,7.0,76,0.00,,,0.00,193,Wunderground v.1.15,2013-09-05 14:30:00,
2013-09-05 10:35:00,72.8,64.0,30.16,North,360,3.0,7.0,74,0.00,,,0.00,142,Wunderground v.1.15,2013-09-05 14:35:00,
2013-09-05 10:40:00,72.9,64.1,30.15,WNW,296,3.0,3.0,74,0.00,,,0.00,218,Wunderground v.1.15,2013-09-05 14:40:00,
2013-09-05 10:46:00,73.0,64.6,30.16,North,360,3.0,8.0,75,0.00,,,0.00,269,Wunderground v.1.15,2013-09-05 14:46:00,
2013-09-05 10:51:00,73.1,64.7,30.15,SSE,160,3.0,4.0,75,0.00,,,0.00,197,Wunderground v.1.15,2013-09-05 14:51:00,
2013-09-05 10:56:00,73.0,64.6,30.15,East,101,3.0,4.0,75,0.00,,,0.00,181,Wunderground v.1.15,2013-09-05 14:56:00,
2013-09-05 11:02:00,73.2,64.8,30.15,SW,221,3.0,8.0,75,0.00,,,0.00,160,Wunderground v.1.15,2013-09-05 15:02:00,
2013-09-05 11:08:00,73.1,64.3,30.15,SSW,208,5.0,10.0,74,0.00,,,0.00,127,Wunderground v.1.15,2013-09-05 15:08:00,
2013-09-05 11:13:00,73.1,64.7,30.15,North,360,3.0,5.0,75,0.00,,,0.00,160,Wunderground v.1.15,2013-09-05 15:13:00,
2013-09-05 11:18:00,73.3,64.9,30.16,NW,323,2.0,5.0,75,0.00,,,0.00,139,Wunderground v.1.15,2013-09-05 15:18:00,
2013-09-05 11:24:00,73.4,65.0,30.15,NE,51,3.0,4.0,75,0.00,,,0.00,193,Wunderground v.1.15,2013-09-05 15:24:00,
2013-09-05 11:29:00,73.6,65.9,30.15,SSW,197,2.0,7.0,77,0.00,,,0.00,186,Wunderground v.1.15,2013-09-05 15:29:00,
2013-09-05 11:34:00,73.7,64.9,30.16,North,360,2.0,6.0,74,0.00,,,0.00,221,Wunderground v.1.15,2013-09-05 15:34:00,
2013-09-05 11:40:00,73.9,65.5,30.15,NW,311,4.0,8.0,75,0.00,,,0.00,316,Wunderground v.1.15,2013-09-05 15:40:00,
2013-09-05 11:45:00,74.2,65.0,30.15,NNW,328,6.0,12.0,73,0.00,,,0.00,889,Wunderground v.1.15,2013-09-05 15:45:00,
2013-09-05 11:50:00,74.6,65.4,30.15,North,360,7.0,11.0,73,0.00,,,0.00,278,Wunderground v.1.15,2013-09-05 15:50:00,
2013-09-05 11:56:00,74.7,64.7,30.15,North,360,8.0,13.0,71,0.00,,,0.00,287,Wunderground v.1.15,2013-09-05 15:56:00,
2013-09-05 12:02:00,74.7,65.1,30.16,NNW,344,8.0,9.0,72,0.00,,,0.00,322,Wunderground v.1.15,2013-09-05 16:02:00,
2013-09-05 12:07:00,75.0,65.0,30.16,West,271,7.0,9.0,71,0.00,,,0.00,290,Wunderground v.1.15,2013-09-05 16:07:00,
2013-09-05 12:12:00,75.2,64.7,30.16,North,360,10.0,20.0,70,0.00,,,0.00,269,Wunderground v.1.15,2013-09-05 16:12:00,
2013-09-05 12:18:00,75.2,64.7,30.16,West,261,10.0,20.0,70,0.00,,,0.00,265,Wunderground v.1.15,2013-09-05 16:18:00,
2013-09-05 12:23:00,74.9,64.9,30.16,North,360,5.0,8.0,71,0.00,,,0.00,246,Wunderground v.1.15,2013-09-05 16:23:00,
2013-09-05 12:28:00,74.8,64.8,30.16,North,360,5.0,10.0,71,0.00,,,0.00,250,Wunderground v.1.15,2013-09-05 16:28:00,
2013-09-05 12:34:00,74.9,64.5,30.16,NE,37,5.0,8.0,70,0.00,,,0.00,334,Wunderground v.1.15,2013-09-05 16:34:00,
2013-09-05 12:39:00,75.3,64.8,30.16,North,360,6.0,10.0,70,0.00,,,0.00,802,Wunderground v.1.15,2013-09-05 16:39:00,
2013-09-05 12:44:00,75.6,64.3,30.16,NNW,328,7.0,12.0,68,0.00,,,0.00,260,Wunderground v.1.15,2013-09-05 16:44:00,
2013-09-05 12:50:00,75.1,63.8,30.16,North,360,7.0,7.0,68,0.00,,,0.00,211,Wunderground v.1.15,2013-09-05 16:50:00,
2013-09-05 12:55:00,75.3,63.6,30.16,West,274,8.0,16.0,67,0.00,,,0.00,793,Wunderground v.1.15,2013-09-05 16:55:00,
2013-09-05 13:00:00,75.8,63.6,30.15,North,360,7.0,11.0,66,0.00,,,0.00,856,Wunderground v.1.15,2013-09-05 17:00:00,
2013-09-05 13:06:00,76.6,65.2,30.15,West,265,6.0,11.0,68,0.00,,,0.00,269,Wunderground v.1.15,2013-09-05 17:06:00,
2013-09-05 13:12:00,77.2,64.1,30.16,West,266,6.0,8.0,64,0.00,,,0.00,807,Wunderground v.1.15,2013-09-05 17:12:00,
2013-09-05 13:17:00,77.3,62.8,30.15,NW,324,7.0,11.0,61,0.00,,,0.00,183,Wunderground v.1.15,2013-09-05 17:17:00,
2013-09-05 13:23:00,77.6,62.6,30.15,NNW,333,9.0,9.0,60,0.00,,,0.00,904,Wunderground v.1.15,2013-09-05 17:23:00,
2013-09-05 13:28:00,78.0,63.9,30.15,WSW,258,6.0,10.0,62,0.00,,,0.00,807,Wunderground v.1.15,2013-09-05 17:28:00,
2013-09-05 13:33:00,78.5,63.9,30.15,West,281,4.0,6.0,61,0.00,,,0.00,853,Wunderground v.1.15,2013-09-05 17:33:00,
2013-09-05 13:39:00,78.7,63.6,30.15,WNW,294,8.0,16.0,60,0.00,,,0.00,856,Wunderground v.1.15,2013-09-05 17:39:00,
2013-09-05 13:44:00,78.6,63.1,30.15,NNW,329,10.0,10.0,59,0.00,,,0.00,842,Wunderground v.1.15,2013-09-05 17:44:00,
2013-09-05 13:49:00,79.3,63.7,30.15,NW,309,9.0,11.0,59,0.00,,,0.00,805,Wunderground v.1.15,2013-09-05 17:49:00,
2013-09-05 13:54:00,79.3,61.7,30.15,North,360,8.0,10.0,55,0.00,,,0.00,807,Wunderground v.1.15,2013-09-05 17:54:00,
2013-09-05 14:00:00,79.3,62.7,30.14,South,169,7.0,7.0,57,0.00,,,0.00,352,Wunderground v.1.15,2013-09-05 18:00:00,
2013-09-05 14:06:00,79.4,62.3,30.14,NW,311,6.0,7.0,56,0.00,,,0.00,759,Wunderground v.1.15,2013-09-05 18:06:00,
2013-09-05 14:11:00,79.5,61.9,30.14,WNW,287,6.0,8.0,55,0.00,,,0.00,809,Wunderground v.1.15,2013-09-05 18:11:00,
2013-09-05 14:16:00,79.8,63.2,30.14,West,277,5.0,8.0,57,0.00,,,0.00,759,Wunderground v.1.15,2013-09-05 18:16:00,
2013-09-05 14:22:00,80.3,62.7,30.14,NNE,23,4.0,5.0,55,0.00,,,0.00,759,Wunderground v.1.15,2013-09-05 18:22:00,
2013-09-05 14:27:00,80.7,63.0,30.14,East,94,6.0,10.0,55,0.00,,,0.00,754,Wunderground v.1.15,2013-09-05 18:27:00,
2013-09-05 14:32:00,80.6,62.4,30.14,NNE,13,8.0,12.0,54,0.00,,,0.00,795,Wunderground v.1.15,2013-09-05 18:32:00,
2013-09-05 14:38:00,80.6,61.3,30.14,West,261,8.0,12.0,52,0.00,,,0.00,763,Wunderground v.1.15,2013-09-05 18:38:00,
2013-09-05 14:43:00,80.3,61.6,30.14,NNW,333,8.0,14.0,53,0.00,,,0.00,728,Wunderground v.1.15,2013-09-05 18:43:00,
2013-09-05 14:49:00,80.0,61.3,30.14,SSW,209,8.0,14.0,53,0.00,,,0.00,721,Wunderground v.1.15,2013-09-05 18:49:00,
2013-09-05 14:54:00,80.0,60.8,30.14,North,360,7.0,19.0,52,0.00,,,0.00,733,Wunderground v.1.15,2013-09-05 18:54:00,
2013-09-05 14:59:00,80.0,60.8,30.14,NNW,340,10.0,19.0,52,0.00,,,0.00,721,Wunderground v.1.15,2013-09-05 18:59:00,
2013-09-05 15:05:00,80.0,61.9,30.14,WNW,289,8.0,17.0,54,0.00,,,0.00,693,Wunderground v.1.15,2013-09-05 19:05:00,
2013-09-05 15:10:00,80.1,61.4,30.14,West,265,6.0,6.0,53,0.00,,,0.00,680,Wunderground v.1.15,2013-09-05 19:10:00,
2013-09-05 15:16:00,80.3,61.1,30.13,North,360,5.0,9.0,52,0.00,,,0.00,691,Wunderground v.1.15,2013-09-05 19:16:00,
2013-09-05 15:21:00,80.5,60.7,30.13,ENE,57,4.0,4.0,51,0.00,,,0.00,654,Wunderground v.1.15,2013-09-05 19:21:00,
2013-09-05 15:26:00,80.8,61.0,30.14,NW,309,5.0,17.0,51,0.00,,,0.00,689,Wunderground v.1.15,2013-09-05 19:26:00,
2013-09-05 15:32:00,80.7,62.0,30.13,West,277,7.0,7.0,53,0.00,,,0.00,689,Wunderground v.1.15,2013-09-05 19:32:00,
2013-09-05 15:37:00,80.5,61.8,30.13,WNW,286,5.0,7.0,53,0.00,,,0.00,626,Wunderground v.1.15,2013-09-05 19:37:00,
2013-09-05 15:42:00,80.7,59.8,30.13,SW,232,4.0,12.0,49,0.00,,,0.00,594,Wunderground v.1.15,2013-09-05 19:42:00,
2013-09-05 15:48:00,80.4,60.1,30.13,WNW,292,8.0,14.0,50,0.00,,,0.00,585,Wunderground v.1.15,2013-09-05 19:48:00,
2013-09-05 15:53:00,80.2,60.4,30.13,North,360,9.0,9.0,51,0.00,,,0.00,564,Wunderground v.1.15,2013-09-05 19:53:00,
2013-09-05 15:58:00,80.2,61.5,30.13,NNW,336,7.0,13.0,53,0.00,,,0.00,591,Wunderground v.1.15,2013-09-05 19:58:00,
2013-09-05 16:04:00,80.2,60.4,30.13,North,360,7.0,15.0,51,0.00,,,0.00,552,Wunderground v.1.15,2013-09-05 20:04:00,
2013-09-05 16:10:00,79.9,59.6,30.13,WNW,286,7.0,8.0,50,0.00,,,0.00,555,Wunderground v.1.15,2013-09-05 20:10:00,
2013-09-05 16:15:00,79.8,60.6,30.14,NW,309,7.0,15.0,52,0.00,,,0.00,527,Wunderground v.1.15,2013-09-05 20:15:00,
2013-09-05 16:20:00,79.5,60.9,30.13,North,360,8.0,8.0,53,0.00,,,0.00,522,Wunderground v.1.15,2013-09-05 20:20:00,
2013-09-05 16:26:00,79.7,60.5,30.14,NNW,331,6.0,14.0,52,0.00,,,0.00,520,Wunderground v.1.15,2013-09-05 20:26:00,
2013-09-05 16:31:00,80.1,60.3,30.14,NNE,21,7.0,11.0,51,0.00,,,0.00,494,Wunderground v.1.15,2013-09-05 20:31:00,
2013-09-05 16:36:00,80.0,60.8,30.14,WNW,284,7.0,14.0,52,0.00,,,0.00,492,Wunderground v.1.15,2013-09-05 20:36:00,
2013-09-05 16:42:00,79.7,58.8,30.14,NW,312,10.0,12.0,49,0.00,,,0.00,452,Wunderground v.1.15,2013-09-05 20:42:00,
2013-09-05 16:47:00,79.7,58.8,30.14,WNW,295,7.0,12.0,49,0.00,,,0.00,466,Wunderground v.1.15,2013-09-05 20:47:00,
2013-09-05 16:52:00,79.8,58.4,30.14,North,360,6.0,10.0,48,0.00,,,0.00,434,Wunderground v.1.15,2013-09-05 20:52:00,
2013-09-05 16:58:00,79.5,59.2,30.14,North,360,9.0,11.0,50,0.00,,,0.00,388,Wunderground v.1.15,2013-09-05 20:58:00,
2013-09-05 17:04:00,79.6,58.8,30.14,North,360,9.0,9.0,49,0.00,,,0.00,431,Wunderground v.1.15,2013-09-05 21:04:00,
2013-09-05 17:09:00,79.7,60.5,30.14,North,360,7.0,9.0,52,0.00,,,0.00,397,Wunderground v.1.15,2013-09-05 21:09:00,
2013-09-05 17:14:00,79.7,60.0,30.14,North,360,5.0,15.0,51,0.00,,,0.00,318,Wunderground v.1.15,2013-09-05 21:14:00,
2013-09-05 17:20:00,78.9,59.2,30.14,North,360,9.0,10.0,51,0.00,,,0.00,315,Wunderground v.1.15,2013-09-05 21:20:00,
2013-09-05 17:25:00,78.8,60.2,30.14,NNW,330,7.0,10.0,53,0.00,,,0.00,325,Wunderground v.1.15,2013-09-05 21:25:00,
2013-09-05 17:31:00,78.9,59.2,30.15,NNW,336,5.0,9.0,51,0.00,,,0.00,332,Wunderground v.1.15,2013-09-05 21:31:00,
2013-09-05 17:36:00,78.6,59.5,30.15,NW,309,7.0,13.0,52,0.00,,,0.00,306,Wunderground v.1.15,2013-09-05 21:36:00,
2013-09-05 17:41:00,78.2,59.7,30.15,North,360,6.0,8.0,53,0.00,,,0.00,295,Wunderground v.1.15,2013-09-05 21:41:00,
2013-09-05 17:46:00,77.6,60.2,30.15,North,360,6.0,11.0,55,0.00,,,0.00,278,Wunderground v.1.15,2013-09-05 21:46:00,
2013-09-05 17:52:00,76.8,59.9,30.15,WNW,300,6.0,10.0,56,0.00,,,0.00,111,Wunderground v.1.15,2013-09-05 21:52:00,
2013-09-05 17:57:00,76.5,59.6,30.16,North,9,5.0,10.0,56,0.00,,,0.00,90,Wunderground v.1.15,2013-09-05 21:57:00,
2013-09-05 18:03:00,76.3,59.4,30.16,WNW,287,3.0,5.0,56,0.00,,,0.00,44,Wunderground v.1.15,2013-09-05 22:03:00,
2013-09-05 18:08:00,76.0,59.7,30.16,NNE,15,3.0,5.0,57,0.00,,,0.00,46,Wunderground v.1.15,2013-09-05 22:08:00,
2013-09-05 18:14:00,75.8,59.5,30.16,NNW,338,3.0,5.0,57,0.00,,,0.00,42,Wunderground v.1.15,2013-09-05 22:14:00,
2013-09-05 18:19:00,75.5,59.7,30.16,NNW,340,4.0,11.0,58,0.00,,,0.00,72,Wunderground v.1.15,2013-09-05 22:19:00,
2013-09-05 18:24:00,75.1,59.8,30.16,NNE,20,5.0,8.0,59,0.00,,,0.00,76,Wunderground v.1.15,2013-09-05 22:24:00,
2013-09-05 18:30:00,74.8,59.5,30.16,ENE,57,5.0,5.0,59,0.00,,,0.00,32,Wunderground v.1.15,2013-09-05 22:30:00,
2013-09-05 18:35:00,74.6,59.8,30.16,NE,34,4.0,6.0,60,0.00,,,0.00,30,Wunderground v.1.15,2013-09-05 22:35:00,
2013-09-05 18:40:00,74.5,59.7,30.16,North,360,4.0,7.0,60,0.00,,,0.00,28,Wunderground v.1.15,2013-09-05 22:40:00,
2013-09-05 18:46:00,74.2,59.4,30.16,North,360,4.0,7.0,60,0.00,,,0.00,28,Wunderground v.1.15,2013-09-05 22:46:00,
2013-09-05 18:51:00,74.0,59.2,30.16,NE,38,3.0,4.0,60,0.00,,,0.00,26,Wunderground v.1.15,2013-09-05 22:51:00,
2013-09-05 18:56:00,73.7,58.9,30.16,North,360,5.0,9.0,60,0.00,,,0.00,21,Wunderground v.1.15,2013-09-05 22:56:00,
2013-09-05 19:02:00,73.3,59.0,30.16,North,11,8.0,10.0,61,0.00,,,0.00,19,Wunderground v.1.15,2013-09-05 23:02:00,
2013-09-05 19:07:00,73.1,58.8,30.17,NNE,32,6.0,10.0,61,0.00,,,0.00,19,Wunderground v.1.15,2013-09-05 23:07:00,
2013-09-05 19:13:00,72.6,58.4,30.17,North,5,3.0,4.0,61,0.00,,,0.00,16,Wunderground v.1.15,2013-09-05 23:13:00,
2013-09-05 19:18:00,72.5,58.7,30.17,North,5,4.0,10.0,62,0.00,,,0.00,14,Wunderground v.1.15,2013-09-05 23:18:00,
2013-09-05 19:24:00,72.1,59.2,30.17,NE,46,3.0,4.0,64,0.00,,,0.00,12,Wunderground v.1.15,2013-09-05 23:24:00,
2013-09-05 19:29:00,71.7,58.4,30.17,North,355,2.0,6.0,63,0.00,,,0.00,11,Wunderground v.1.15,2013-09-05 23:29:00,
2013-09-05 19:34:00,71.6,58.3,30.17,NE,38,4.0,7.0,63,0.00,,,0.00,7,Wunderground v.1.15,2013-09-05 23:34:00,
2013-09-05 19:39:00,71.4,58.1,30.17,North,11,4.0,7.0,63,0.00,,,0.00,5,Wunderground v.1.15,2013-09-05 23:39:00,
2013-09-05 19:45:00,71.2,58.4,30.17,SSE,160,2.0,4.0,64,0.00,,,0.00,0,Wunderground v.1.15,2013-09-05 23:45:00,
2013-09-05 19:50:00,70.9,58.1,30.17,NNW,348,2.0,2.0,64,0.00,,,0.00,0,Wunderground v.1.15,2013-09-05 23:50:00,
2013-09-05 19:55:00,70.5,58.2,30.17,ESE,120,2.0,3.0,65,0.00,,,0.00,0,Wunderground v.1.15,2013-09-05 23:55:00,
2013-09-05 20:00:00,70.1,58.6,30.18,ENE,63,1.0,2.0,67,0.00,,,0.00,0,Wunderground v.1.15,2013-09-06 00:00:00,
2013-09-05 20:06:00,69.8,58.8,30.18,ENE,72,2.0,4.0,68,0.00,,,0.00,0,Wunderground v.1.15,2013-09-06 00:06:00,
2013-09-05 20:11:00,69.3,58.3,30.18,ENE,71,2.0,2.0,68,0.00,,,0.00,0,Wunderground v.1.15,2013-09-06 00:11:00,
2013-09-05 20:16:00,68.8,58.6,30.18,East,92,2.0,5.0,70,0.00,,,0.00,0,Wunderground v.1.15,2013-09-06 00:16:00,
2013-09-05 20:21:00,68.4,58.6,30.18,NNW,347,2.0,3.0,71,0.00,,,0.00,0,Wunderground v.1.15,2013-09-06 00:21:00,
2013-09-05 20:27:00,68.1,59.1,30.18,NNW,346,1.0,3.0,73,0.00,,,0.00,0,Wunderground v.1.15,2013-09-06 00:27:00,
2013-09-05 20:32:00,67.6,58.6,30.19,NNW,339,2.0,6.0,73,0.00,,,0.00,0,Wunderground v.1.15,2013-09-06 00:32:00,
2013-09-05 20:37:00,67.2,59.0,30.19,NW,319,3.0,6.0,75,0.00,,,0.00,0,Wunderground v.1.15,2013-09-06 00:37:00,
2013-09-05 20:43:00,66.6,58.4,30.19,NNW,329,4.0,7.0,75,0.00,,,0.00,0,Wunderground v.1.15,2013-09-06 00:43:00,
2013-09-05 20:48:00,66.3,58.5,30.19,NNW,327,5.0,7.0,76,0.00,,,0.00,0,Wunderground v.1.15,2013-09-06 00:48:00,
2013-09-05 20:53:00,65.9,58.5,30.20,NW,323,5.0,7.0,77,0.00,,,0.00,0,Wunderground v.1.15,2013-09-06 00:53:00,
2013-09-05 20:59:00,65.4,58.4,30.20,NW,321,5.0,7.0,78,0.00,,,0.00,0,Wunderground v.1.15,2013-09-06 00:59:00,
2013-09-05 21:05:00,64.9,57.9,30.20,NW,317,5.0,6.0,78,0.00,,,0.00,0,Wunderground v.1.15,2013-09-06 01:05:00,
2013-09-05 21:10:00,64.6,57.9,30.20,NW,318,6.0,6.0,79,0.00,,,0.00,0,Wunderground v.1.15,2013-09-06 01:10:00,
2013-09-05 21:15:00,64.3,57.6,30.20,NW,310,6.0,7.0,79,0.00,,,0.00,0,Wunderground v.1.15,2013-09-06 01:15:00,
2013-09-05 21:21:00,64.0,58.1,30.20,NW,325,6.0,7.0,81,0.00,,,0.00,0,Wunderground v.1.15,2013-09-06 01:21:00,
2013-09-05 21:26:00,63.9,58.0,30.20,NW,316,6.0,7.0,81,0.00,,,0.00,0,Wunderground v.1.15,2013-09-06 01:26:00,
2013-09-05 21:31:00,63.6,57.7,30.21,NW,309,5.0,5.0,81,0.00,,,0.00,0,Wunderground v.1.15,2013-09-06 01:31:00,
2013-09-05 21:37:00,63.1,57.5,30.21,NW,318,3.0,5.0,82,0.00,,,0.00,0,Wunderground v.1.15,2013-09-06 01:37:00,
2013-09-05 21:42:00,62.4,57.2,30.21,North,360,2.0,3.0,83,0.00,,,0.00,0,Wunderground v.1.15,2013-09-06 01:42:00,
2013-09-05 21:47:00,62.0,57.1,30.21,NNW,327,1.0,3.0,84,0.00,,,0.00,0,Wunderground v.1.15,2013-09-06 01:47:00,
2013-09-05 21:53:00,61.6,57.0,30.21,NNW,329,0.0,1.0,85,0.00,,,0.00,0,Wunderground v.1.15,2013-09-06 01:53:00,
2013-09-05 21:58:00,61.4,56.8,30.22,NW,326,0.0,1.0,85,0.00,,,0.00,0,Wunderground v.1.15,2013-09-06 01:58:00,
2013-09-05 22:04:00,61.2,56.7,30.22,NW,325,1.0,3.0,85,0.00,,,0.00,0,Wunderground v.1.15,2013-09-06 02:04:00,
2013-09-05 22:09:00,61.0,56.8,30.22,NW,324,1.0,3.0,86,0.00,,,0.00,0,Wunderground v.1.15,2013-09-06 02:09:00,
2013-09-05 22:15:00,60.9,56.7,30.22,North,360,0.0,1.0,86,0.00,,,0.00,0,Wunderground v.1.15,2013-09-06 02:15:00,
2013-09-05 22:20:00,60.8,56.6,30.23,NW,325,0.0,0.0,86,0.00,,,0.00,0,Wunderground v.1.15,2013-09-06 02:20:00,
2013-09-05 22:25:00,60.6,56.7,30.23,NW,325,0.0,0.0,87,0.00,,,0.00,0,Wunderground v.1.15,2013-09-06 02:25:00,
2013-09-05 22:31:00,60.4,56.5,30.23,NW,325,0.0,1.0,87,0.00,,,0.00,0,Wunderground v.1.15,2013-09-06 02:31:00,
2013-09-05 22:36:00,60.1,56.2,30.23,NW,324,0.0,1.0,87,0.00,,,0.00,0,Wunderground v.1.15,2013-09-06 02:36:00,
2013-09-05 22:42:00,59.6,56.0,30.24,NW,325,0.0,0.0,88,0.00,,,0.00,0,Wunderground v.1.15,2013-09-06 02:42:00,
2013-09-05 22:47:00,59.5,56.3,30.24,NW,323,0.0,0.0,89,0.00,,,0.00,0,Wunderground v.1.15,2013-09-06 02:47:00,
2013-09-05 22:52:00,59.2,56.0,30.24,NW,325,0.0,0.0,89,0.00,,,0.00,0,Wunderground v.1.15,2013-09-06 02:52:00,
2013-09-05 22:58:00,59.0,56.1,30.24,NW,325,0.0,1.0,90,0.00,,,0.00,0,Wunderground v.1.15,2013-09-06 02:58:00,
2013-09-05 23:04:00,58.8,55.9,30.24,NW,322,0.0,0.0,90,0.00,,,0.00,0,Wunderground v.1.15,2013-09-06 03:04:00,
2013-09-05 23:09:00,58.7,56.1,30.24,NW,325,0.0,1.0,91,0.00,,,0.00,0,Wunderground v.1.15,2013-09-06 03:09:00,
2013-09-05 23:15:00,58.5,55.9,30.24,NW,325,0.0,0.0,91,0.00,,,0.00,0,Wunderground v.1.15,2013-09-06 03:15:00,
2013-09-05 23:20:00,58.3,55.7,30.24,NW,325,0.0,0.0,91,0.00,,,0.00,0,Wunderground v.1.15,2013-09-06 03:20:00,
2013-09-05 23:25:00,58.1,55.5,30.24,NW,325,0.0,0.0,91,0.00,,,0.00,0,Wunderground v.1.15,2013-09-06 03:25:00,
2013-09-05 23:31:00,57.8,55.5,30.24,NW,325,0.0,0.0,92,0.00,,,0.00,0,Wunderground v.1.15,2013-09-06 03:31:00,
2013-09-05 23:36:00,57.6,55.3,30.25,NW,325,0.0,1.0,92,0.00,,,0.00,0,Wunderground v.1.15,2013-09-06 03:36:00,
2013-09-05 23:41:00,57.4,55.1,30.25,NW,325,0.0,0.0,92,0.00,,,0.00,0,Wunderground v.1.15,2013-09-06 03:41:00,
2013-09-05 23:47:00,57.2,54.9,30.25,NW,324,0.0,0.0,92,0.00,,,0.00,0,Wunderground v.1.15,2013-09-06 03:47:00,
2013-09-05 23:52:00,57.0,55.0,30.25,NW,325,0.0,1.0,93,0.00,,,0.00,0,Wunderground v.1.15,2013-09-06 03:52:00,
2013-09-05 23:58:00,56.8,54.8,30.25,NW,323,1.0,1.0,93,0.00,,,0.00,0,Wunderground v.1.15,2013-09-06 03:58:00,